Theta_e
349 350 350 351 349 349 350 350 350 349 351 353 352 349 348 348 349 348 348 349 349 350 350 349 346 344 343 344 345 345 347 349 350 350 350 350 352 359 361 360 359 360 358 358 358 358 358 357 356 355 355 354 354 354 355 354 355 355 354 355 356 356 357 357 357 357 358 358 358 358 359 358 357 357 357 358 358 357 356 356 357 357 357 357 357
349 349 349 348 349 349 348 349 349 350 350 348 350 348 346 347 347 346 347 346 346 347 352 346 341 341 341 344 345 346 347 348 349 350 350 351 352 358 363 360 360 360 359 359 358 358 358 357 357 356 356 355 355 356 356 355 356 356 357 357 357 357 358 358 358 358 359 360 359 359 359 359 358 358 358 358 358 359 359 359 358 358 358 358 358
350 349 349 348 348 346 348 351 350 350 349 347 348 349 348 348 347 346 345 345 345 346 348 345 340 343 343 342 344 346 347 348 349 350 351 351 352 353 360 362 362 361 360 360 359 359 358 358 359 358 357 357 358 358 357 358 358 358 358 359 359 359 359 359 360 360 361 361 361 360 360 360 360 360 359 359 359 359 359 359 359 359 359 359 359
352 352 351 349 347 347 346 346 346 347 350 348 347 348 348 348 348 348 348 347 346 347 347 345 341 339 340 341 341 345 347 348 349 350 350 351 351 353 355 360 363 362 361 360 360 360 360 360 360 359 359 359 359 360 359 359 359 360 361 360 361 361 361 361 362 362 362 362 362 362 362 362 361 362 361 360 360 360 360 359 360 360 360 361 361
351 352 354 348 349 347 347 347 345 348 351 350 349 347 347 346 346 349 349 349 349 348 349 346 341 340 341 341 339 343 347 349 349 349 348 349 350 352 353 357 357 363 362 362 361 360 361 360 361 361 361 360 361 361 360 361 362 361 361 362 362 362 363 364 363 364 364 364 364 364 364 363 363 362 361 361 361 361 361 361 361 361 361 361 362
350 349 349 348 348 346 346 345 347 349 351 349 347 348 347 347 347 350 356 358 347 345 346 343 342 340 339 340 339 341 346 349 349 347 346 347 349 350 352 353 355 355 359 362 362 362 362 362 362 362 362 362 363 362 363 363 363 363 363 363 363 364 365 365 365 365 366 365 365 365 365 365 364 363 362 363 362 362 362 362 362 363 363 363 363
351 349 348 347 347 347 347 346 347 350 349 349 349 349 347 348 351 351 353 351 349 351 349 343 340 340 339 338 337 340 343 347 347 346 345 345 346 348 349 351 352 354 357 355 365 364 364 364 364 364 364 364 365 365 365 365 365 365 365 365 365 366 367 367 367 367 367 367 367 366 366 366 365 364 364 364 364 364 364 364 364 364 364 363 364
351 349 347 347 347 347 348 347 349 351 350 349 350 349 350 351 352 354 351 350 355 350 344 338 339 339 339 341 337 344 338 342 345 345 346 346 346 347 348 349 350 351 359 353 354 359 365 366 365 365 366 366 366 366 366 367 367 366 366 367 367 368 369 369 369 368 368 368 368 367 367 367 366 365 365 365 365 365 365 365 365 364 364 364 364
352 350 348 347 348 347 350 349 351 350 348 348 348 351 349 351 350 354 354 350 351 352 347 340 337 338 339 340 343 345 337 340 343 344 348 346 346 347 348 349 351 359 354 353 350 351 358 365 368 368 368 367 367 367 367 368 368 368 368 368 368 369 370 369 369 368 368 368 368 368 368 367 367 366 366 366 366 366 366 365 365 364 364 363 363
351 350 346 348 347 349 349 349 351 349 347 348 347 349 351 350 349 352 358 354 352 352 349 341 340 339 337 338 340 339 338 339 342 354 344 346 347 348 349 350 352 351 353 353 350 349 350 356 364 369 370 370 369 370 369 369 368 368 368 368 368 369 368 368 368 368 368 368 368 368 368 368 368 368 368 367 367 367 366 365 365 364 363 363 363
351 351 348 350 348 348 348 349 351 350 347 348 348 352 354 355 355 355 359 357 354 354 351 344 342 340 339 339 342 341 341 340 345 345 341 345 347 352 352 351 352 352 352 354 351 350 350 351 352 356 360 368 370 371 371 371 370 369 368 368 368 368 369 369 368 368 368 368 369 370 370 370 370 370 370 369 369 368 367 367 364 364 364 364 363
349 351 350 349 347 348 348 350 350 348 347 347 348 349 350 354 355 362 359 358 359 354 349 343 336 335 344 339 341 343 343 352 345 342 343 342 345 351 346 348 351 353 355 356 353 353 352 351 356 352 354 359 366 370 372 372 373 371 371 369 368 368 368 368 368 369 370 370 371 371 370 371 371 371 370 369 369 368 368 367 366 365 364 363 363
350 349 350 354 348 349 347 347 349 349 348 347 350 352 356 359 361 360 360 353 352 347 347 335 335 334 335 337 339 345 355 350 343 343 344 341 343 349 344 347 347 350 355 356 354 354 354 352 350 351 353 354 357 367 371 371 373 373 371 370 369 369 369 369 370 370 371 372 372 372 371 371 371 370 370 370 369 369 368 368 367 366 365 364 363
353 350 354 348 347 349 347 346 348 347 348 350 353 366 361 355 356 352 354 355 349 348 347 340 337 330 332 334 337 338 347 348 344 341 339 339 343 345 343 345 345 348 351 352 353 355 355 353 352 353 353 354 356 356 360 365 369 373 372 370 370 371 370 370 370 370 371 371 372 372 371 371 371 371 370 369 368 368 367 367 367 366 366 365 364
354 357 357 351 350 350 346 346 346 348 350 351 359 358 358 356 357 353 351 352 356 354 348 342 337 339 339 335 329 331 337 339 341 344 341 338 341 341 344 342 345 347 349 350 349 350 351 350 351 353 354 356 357 356 356 364 363 370 371 370 370 371 370 370 371 372 372 373 372 372 372 371 371 371 370 368 367 367 367 367 367 366 366 366 365
356 359 363 351 349 348 348 346 346 349 353 356 356 357 359 356 355 358 353 346 349 346 352 351 346 334 331 332 330 331 326 329 334 339 340 337 335 338 342 341 341 346 350 347 346 346 345 345 343 343 354 359 358 355 355 356 364 372 370 370 369 367 370 371 372 371 373 374 373 373 372 371 371 370 370 369 368 368 367 367 366 366 366 366 366
360 363 365 354 352 352 348 349 351 357 363 358 357 358 358 357 356 354 352 350 347 349 348 352 348 344 339 336 329 328 326 327 333 330 337 334 333 333 341 341 339 343 348 346 345 345 345 343 342 350 356 357 357 356 356 359 361 368 367 371 371 367 367 371 372 374 374 375 373 372 371 370 370 370 370 370 370 369 368 367 366 366 366 366 366
359 361 363 358 354 358 356 358 360 359 361 359 360 357 356 355 357 355 355 358 348 346 344 349 354 354 350 336 333 328 328 335 329 327 337 341 343 334 336 339 339 343 345 344 344 344 349 344 342 345 348 352 354 357 358 358 365 362 363 363 371 370 368 367 368 371 374 373 371 370 370 368 368 368 369 370 370 369 368 367 366 366 366 366 366
359 361 360 363 360 362 361 360 359 359 368 357 351 353 356 356 361 356 357 361 350 344 346 347 344 348 353 348 349 346 341 334 330 332 327 331 335 336 334 335 337 340 341 342 341 342 343 345 343 344 343 345 349 352 356 357 363 365 366 368 366 369 369 365 364 369 372 371 369 369 369 369 368 369 368 368 369 368 367 367 366 365 366 366 366
359 359 360 362 361 359 361 361 360 359 367 356 352 356 362 363 365 361 360 358 351 348 346 348 342 344 353 348 347 349 343 344 338 331 329 326 330 335 339 338 338 338 339 340 339 341 341 342 344 343 342 343 347 347 353 354 355 359 362 366 368 370 369 368 366 366 368 369 369 368 369 370 370 369 367 368 367 367 366 366 366 366 367 366 367
360 360 359 360 364 360 359 364 361 361 369 359 358 360 362 359 359 357 356 356 358 356 349 348 347 348 348 345 342 344 343 342 343 342 335 330 330 331 332 334 338 339 340 338 338 341 342 341 343 347 345 346 345 346 352 354 355 359 366 368 371 371 370 368 366 367 368 369 372 371 370 370 370 370 368 368 367 367 367 366 367 367 367 368 367
358 358 358 358 362 361 360 361 359 363 362 354 356 361 360 359 362 360 358 356 358 359 358 355 354 352 350 344 339 339 340 339 339 340 337 332 327 329 331 330 329 333 339 340 341 340 340 341 343 347 345 345 348 350 349 352 357 364 364 367 369 371 371 367 367 368 369 369 369 370 370 370 369 368 367 367 369 368 367 366 366 367 367 367 366
358 358 358 358 358 361 361 358 360 366 364 357 356 358 361 360 361 361 360 356 354 358 356 355 352 350 346 341 340 341 339 338 337 343 335 334 333 334 335 337 331 333 336 342 347 344 342 341 341 342 343 343 347 356 356 355 363 364 363 364 364 367 368 368 368 368 366 366 368 369 372 369 369 368 368 370 370 369 369 366 366 366 367 366 366
357 356 356 358 359 359 363 361 363 360 360 361 359 357 359 361 359 357 358 358 359 358 354 350 350 349 347 346 344 345 344 341 344 345 341 340 337 336 336 339 337 336 341 344 345 341 343 344 346 347 348 352 356 359 360 363 360 367 365 364 362 363 364 366 367 367 366 365 364 364 366 366 366 365 370 369 369 368 367 367 366 367 366 366 365
354 355 355 356 359 358 357 358 358 362 360 357 356 358 359 362 362 360 357 354 358 359 351 352 353 348 346 351 349 344 344 347 348 346 346 344 339 334 338 342 338 339 339 344 340 344 347 345 348 350 354 354 357 357 356 361 359 362 365 361 360 361 362 364 367 366 364 364 364 365 366 366 364 363 363 364 364 364 364 367 366 366 367 365 365
353 353 355 356 359 359 362 361 359 362 361 359 358 358 360 359 361 358 358 357 358 357 354 355 354 355 349 348 347 349 350 350 348 345 345 343 338 339 340 338 342 341 340 342 343 339 339 346 350 353 354 354 356 356 357 356 357 362 363 361 357 357 361 362 365 364 364 364 364 364 363 363 364 364 364 364 365 364 364 364 364 365 366 365 365
354 355 357 356 358 357 363 361 359 362 364 363 364 361 364 362 363 358 359 358 356 360 357 356 354 353 352 348 349 348 351 351 350 347 349 348 345 345 340 334 332 335 341 339 342 341 340 342 348 348 352 359 357 355 355 354 358 361 363 358 355 356 356 359 360 362 364 365 366 364 363 362 362 364 365 365 364 367 370 365 364 363 363 363 363
355 355 356 356 357 357 362 360 360 361 361 360 360 360 360 357 357 360 354 368 359 358 357 358 356 355 352 353 348 345 349 350 352 353 350 349 351 350 344 337 332 330 333 335 337 339 344 344 344 347 352 352 354 353 359 359 356 361 363 354 353 353 355 357 357 357 358 358 359 359 360 361 359 360 362 363 363 363 364 367 368 364 361 361 362
355 358 355 357 357 356 359 360 360 360 360 361 361 359 358 358 358 359 357 360 358 357 360 359 356 356 352 353 348 347 347 350 352 351 349 351 351 351 348 342 337 334 331 331 330 335 342 347 344 341 351 352 353 355 355 354 358 359 354 353 353 355 353 352 354 353 353 352 353 353 354 356 356 358 360 362 362 362 363 364 365 363 361 360 361
356 360 357 357 357 364 356 359 360 360 360 360 360 360 357 356 359 357 358 359 361 361 362 361 358 356 360 356 353 352 357 349 348 349 349 349 349 351 352 351 345 339 336 334 332 337 341 346 343 343 348 353 355 355 356 353 357 357 354 353 353 353 349 350 353 351 350 349 349 348 349 350 352 353 354 354 354 356 357 359 361 360 361 361 361
359 357 357 357 357 359 355 358 360 360 359 359 359 358 356 354 357 358 357 357 356 357 358 361 360 357 354 354 351 353 357 352 349 348 349 352 351 353 354 354 352 345 344 338 333 337 347 343 346 352 353 354 357 356 356 355 358 358 356 355 355 355 354 354 352 350 348 346 344 344 343 345 347 347 347 349 351 353 355 357 358 359 359 359 360
357 358 356 357 359 358 356 359 359 360 359 360 359 358 358 355 356 361 357 357 356 356 357 358 360 359 355 355 356 357 357 356 356 356 351 352 356 353 354 355 353 351 349 341 338 339 345 349 349 353 357 356 357 356 354 355 359 359 356 356 357 358 356 354 353 350 347 344 344 343 341 341 341 343 346 348 350 352 354 356 355 355 356 357 357
356 359 356 356 359 359 359 360 360 359 358 359 359 358 357 355 355 357 358 358 358 356 357 356 358 357 358 356 355 357 358 355 353 353 353 352 352 353 354 353 352 353 351 346 341 343 347 351 354 355 357 358 356 354 354 354 355 357 358 358 358 356 355 353 351 349 347 345 344 342 340 339 340 340 343 347 349 350 352 353 351 350 351 349 348
355 357 356 357 359 358 359 359 358 359 359 357 359 359 358 356 355 359 360 357 355 356 355 355 357 360 357 354 356 356 357 356 355 354 352 351 350 348 347 353 351 352 355 350 347 343 343 347 350 353 354 358 353 355 353 354 355 358 357 357 358 355 353 351 350 350 348 346 343 340 339 339 339 340 343 345 347 347 347 346 343 342 342 341 338
356 356 356 356 359 358 358 358 357 357 358 358 358 358 358 357 356 357 359 358 357 356 356 355 355 355 355 354 355 356 360 356 355 355 355 353 351 349 348 350 351 353 355 355 348 343 344 345 349 350 351 353 353 354 356 357 358 357 355 355 355 355 355 353 352 351 348 346 344 340 339 340 340 340 340 341 343 342 341 339 336 334 334 333 331
355 356 355 355 358 358 356 357 357 356 357 358 358 358 358 357 357 356 355 357 358 358 357 357 356 355 353 352 353 354 354 353 353 352 353 353 352 351 349 350 348 347 348 352 353 348 346 344 345 348 351 351 352 355 357 358 356 354 354 354 353 352 352 351 350 350 350 346 343 342 342 340 340 339 339 339 338 336 335 335 334 334 333 333 332
355 354 356 357 355 356 356 356 356 355 357 358 357 357 358 358 358 358 357 356 357 358 358 357 364 357 355 354 354 355 355 353 353 351 352 350 350 348 348 351 352 350 352 354 353 353 349 346 346 347 349 350 352 354 355 353 351 350 350 348 348 348 348 350 352 354 350 347 347 345 342 342 342 341 340 340 339 338 337 336 336 335 334 333 332
351 350 348 352 356 355 354 356 357 357 357 358 357 356 358 359 359 358 358 358 357 356 357 358 358 359 358 356 356 356 354 352 351 350 350 350 350 352 353 351 351 351 352 352 353 351 348 347 345 346 345 349 348 347 351 349 348 347 347 347 348 348 347 349 352 355 357 356 354 354 347 346 345 341 342 341 339 338 338 337 337 337 336 334 330
353 352 352 351 350 353 354 360 359 358 358 358 358 356 356 357 357 358 358 357 358 358 357 358 358 358 356 354 354 354 354 352 351 349 348 349 352 350 350 349 351 351 351 347 348 347 347 346 343 344 345 346 346 345 349 350 348 347 343 344 344 346 346 347 350 353 355 355 352 350 350 349 347 348 339 337 339 340 340 339 339 339 339 336 330
349 349 352 351 351 355 358 357 358 358 357 352 357 359 359 358 357 358 357 356 356 357 357 356 357 354 349 348 351 353 353 354 353 351 351 350 350 350 350 350 351 350 349 348 346 345 343 343 341 342 341 341 347 347 349 345 343 342 344 345 343 344 347 347 347 349 352 353 353 355 353 352 351 349 342 344 345 344 344 345 347 345 341 335 332
351 351 351 350 353 353 354 354 356 358 356 358 358 358 361 359 360 357 355 355 355 354 354 356 353 352 349 350 350 351 359 368 370 369 370 364 352 348 348 351 349 347 347 347 347 345 343 342 342 341 341 342 344 343 342 340 340 341 342 344 344 347 347 348 350 351 353 352 354 354 353 354 353 353 354 354 356 356 354 348 349 349 342 335 333
349 350 349 352 351 350 351 353 355 353 351 350 352 351 354 359 358 361 359 357 355 354 354 352 355 357 355 351 353 362 371 374 372 372 370 369 371 362 349 350 350 348 348 346 344 343 342 341 341 341 342 343 343 343 342 343 345 345 346 347 347 348 347 346 347 346 352 353 351 350 352 355 354 353 354 354 357 358 357 357 353 346 340 335 333
351 354 350 349 348 349 351 348 344 342 341 341 339 332 337 348 359 357 357 354 354 354 353 351 350 351 352 352 350 359 364 363 358 361 365 366 365 362 362 364 366 352 346 344 342 342 343 344 343 342 341 341 343 345 345 346 346 346 347 349 348 346 342 340 341 346 350 352 350 349 350 354 354 351 353 354 356 355 355 355 343 342 337 335 334
352 353 351 349 347 348 347 344 341 338 334 331 326 331 336 339 354 356 355 357 356 354 353 353 351 352 352 351 355 359 358 360 354 349 353 363 365 365 362 360 360 361 359 350 346 343 341 341 341 342 342 343 344 345 344 345 347 350 350 349 344 344 343 342 340 342 349 354 350 349 348 352 353 352 351 353 353 354 355 344 340 340 336 335 336
352 350 349 348 345 343 341 339 336 334 331 327 325 327 330 332 334 355 351 353 350 349 348 348 349 350 351 352 350 347 348 356 351 346 345 349 360 362 364 365 365 359 346 344 348 353 349 344 344 344 345 344 343 345 349 350 350 348 346 344 345 344 344 343 344 346 350 354 351 347 346 349 350 350 349 351 352 353 354 346 342 338 336 337 336
349 348 348 345 341 338 336 334 332 330 328 324 322 324 325 328 332 342 351 351 349 350 350 352 353 350 349 350 346 342 340 339 340 342 341 345 350 353 353 353 354 358 358 352 349 346 348 351 346 344 347 348 346 346 350 347 345 345 344 344 346 345 345 345 348 349 352 355 349 347 344 346 350 349 347 348 351 351 352 344 336 335 337 336 335
348 347 347 344 340 337 334 331 329 325 324 320 319 322 322 324 329 352 349 355 351 354 355 354 352 353 350 346 342 338 335 334 339 341 339 341 346 350 348 350 350 352 350 349 347 347 348 350 349 348 349 349 346 344 344 344 345 346 347 347 348 347 348 349 348 348 350 352 351 347 341 346 348 346 345 346 348 349 351 342 337 336 336 334 334
348 348 348 344 338 335 333 330 327 325 325 318 318 318 320 322 332 351 350 353 353 353 351 349 348 348 347 343 339 335 334 333 333 329 333 342 345 345 345 346 348 350 349 352 338 343 347 343 346 349 348 346 344 344 344 342 346 347 350 350 348 346 343 340 339 343 343 348 351 346 342 342 346 344 344 346 347 346 349 350 342 339 336 335 335
346 345 344 343 339 335 333 329 326 324 324 320 315 315 317 320 339 346 351 353 352 349 348 346 344 343 342 340 337 334 333 333 329 321 323 345 341 341 341 343 345 347 341 341 339 339 335 333 333 335 332 332 330 330 332 333 342 346 343 338 337 343 341 338 340 341 342 346 348 348 344 341 344 342 342 344 344 344 346 349 350 340 336 334 334
343 342 342 341 339 337 332 328 327 324 323 321 314 314 317 323 342 347 351 351 349 348 347 346 345 344 346 348 341 333 331 330 322 319 322 339 335 336 337 339 342 341 337 337 339 342 338 339 337 335 335 335 337 339 339 335 337 348 342 338 341 343 340 340 338 342 344 345 346 341 332 333 337 339 339 341 342 342 347 347 349 346 339 337 335
343 343 342 337 335 335 334 333 333 325 323 324 314 313 315 319 334 341 348 348 348 347 344 340 338 336 336 340 340 336 332 327 316 318 321 336 334 335 336 339 337 336 334 332 334 338 340 344 343 341 343 348 347 348 347 345 344 348 345 343 344 341 338 339 340 339 338 340 343 338 330 331 334 337 337 336 335 341 346 348 348 349 349 347 342
Wind_Speed
4 3 3 3 2 2 1 1 1 1 2 2 1 3 3 3 4 4 4 4 4 6 5 6 4 2 5 6 5 5 4 4 4 4 4 4 4 6 11 10 9 9 9 8 9 8 8 7 7 6 6 6 5 5 5 5 6 5 5 6 6 6 6 6 6 6 7 8 7 7 8 8 7 8 5 6 7 7 6 7 7 8 8 8 9
3 2 3 2 2 1 1 0 0 0 1 2 2 2 3 4 4 4 5 5 5 5 4 5 3 3 5 6 6 5 4 5 4 4 4 4 4 3 10 9 9 9 8 8 8 8 7 7 7 6 6 6 7 7 6 6 6 6 6 7 7 7 7 7 6 6 7 8 8 8 8 9 9 9 9 9 8 8 8 8 9 9 9 10 10
3 3 2 3 2 2 0 1 1 1 2 2 1 2 2 3 3 4 4 5 6 6 4 4 3 1 4 6 5 4 4 4 4 4 4 5 4 4 5 11 10 10 9 9 8 8 7 8 8 8 8 9 8 8 7 8 8 8 7 7 7 7 7 7 7 7 8 8 9 8 8 9 9 10 10 10 10 10 10 10 10 10 9 10 10
3 3 4 4 3 2 0 0 1 2 2 2 2 2 2 3 3 4 5 4 6 6 5 4 3 4 2 5 4 4 5 5 4 4 4 4 5 4 4 5 10 11 10 10 10 10 9 10 10 10 10 10 10 10 10 9 9 9 8 8 8 7 8 8 8 8 8 9 9 9 9 9 9 9 9 10 10 10 10 10 10 10 11 12 12
3 3 3 4 3 2 0 1 1 2 2 2 2 2 2 3 4 3 4 4 4 5 4 3 4 5 3 2 5 4 5 4 4 4 4 4 4 4 4 4 3 9 11 11 11 11 11 11 11 11 11 11 12 11 11 11 10 10 9 9 8 8 9 9 9 8 9 9 9 9 9 9 9 8 9 9 9 9 10 10 10 11 12 12 12
4 3 3 3 3 2 2 1 1 2 2 2 2 2 3 3 4 3 4 4 4 2 2 5 5 4 4 3 4 5 5 5 4 4 3 4 4 4 4 4 4 3 4 9 11 11 12 12 12 12 12 12 12 12 12 11 11 10 10 9 9 9 9 10 9 9 9 9 9 9 9 9 9 8 8 9 9 9 9 10 10 11 12 13 12
3 4 3 2 3 2 1 1 2 2 2 2 2 3 2 3 4 5 5 4 1 1 3 5 4 5 6 5 5 5 5 5 4 4 4 4 3 4 4 4 4 4 4 4 7 11 12 12 12 12 12 12 12 12 12 12 12 11 10 10 9 9 10 10 10 9 9 9 10 10 10 10 9 9 8 8 8 8 8 8 9 11 11 12 12
4 3 3 2 1 1 1 1 2 2 2 2 2 3 3 4 3 2 5 4 3 3 3 1 3 5 5 4 5 6 6 5 5 5 5 4 4 4 4 4 4 5 5 5 5 5 10 12 12 12 12 12 11 11 11 11 12 11 11 10 10 9 10 10 9 9 9 10 10 10 10 10 10 9 9 9 9 7 8 9 10 10 10 11 11
3 2 3 2 1 1 0 1 1 1 2 3 3 3 2 4 6 4 4 3 3 2 5 1 3 4 3 4 6 6 6 7 6 6 5 5 5 4 4 5 4 6 5 5 5 5 7 11 11 12 12 11 11 11 11 11 11 11 10 10 10 10 9 9 9 9 9 9 9 10 10 10 10 9 9 9 9 8 8 9 10 10 9 10 10
3 2 2 3 1 0 1 1 1 1 3 3 4 3 2 2 5 6 2 3 3 3 4 2 2 2 1 1 4 7 7 6 6 5 6 5 5 5 6 5 5 6 6 5 6 5 5 7 10 11 11 10 10 10 10 10 10 10 10 9 9 9 9 9 9 8 9 9 9 9 10 10 10 10 9 9 9 9 9 9 9 9 9 9 9
4 3 2 3 2 1 2 1 1 2 2 3 3 3 3 3 4 5 4 3 3 3 3 2 1 1 0 1 1 3 3 6 6 6 6 6 6 7 5 6 6 6 6 5 5 5 5 5 5 5 6 10 11 10 9 9 9 9 9 9 9 9 9 9 8 8 9 9 9 9 10 10 10 10 10 9 9 8 8 8 9 9 9 8 8
2 3 4 4 4 2 1 1 1 1 2 2 3 3 4 3 3 3 4 4 2 2 1 3 1 1 0 2 2 0 0 3 4 6 5 5 6 4 6 5 6 6 6 6 5 5 5 5 4 5 5 7 10 9 9 8 7 8 9 9 9 9 9 8 8 8 8 9 10 10 9 10 10 10 10 9 8 7 8 8 8 9 9 8 8
2 2 3 4 3 2 1 1 1 2 2 2 3 5 4 3 2 1 1 3 3 3 2 4 4 1 3 3 2 1 1 1 5 5 5 6 5 5 4 4 6 5 6 5 5 5 5 5 5 5 5 5 6 8 8 8 7 7 9 9 9 9 9 9 9 8 8 9 10 9 9 10 10 11 10 10 8 8 7 7 8 9 9 9 8
3 2 3 3 3 2 1 2 2 2 2 3 4 5 1 3 2 3 1 1 1 1 2 3 1 3 2 1 4 4 3 2 3 4 4 3 4 5 4 6 6 6 5 5 5 5 5 6 5 5 5 5 5 4 4 4 5 7 8 9 10 10 9 9 9 9 9 9 10 9 10 10 10 10 11 10 9 8 8 8 8 9 9 9 9
4 3 3 3 2 1 0 2 4 3 3 4 4 2 2 3 3 2 4 2 1 1 2 1 3 1 2 2 1 1 3 2 3 4 5 2 2 4 4 4 5 4 5 5 5 5 5 5 5 5 4 5 5 5 4 4 5 7 8 9 10 11 10 10 10 11 10 10 10 10 10 9 10 10 11 11 11 9 8 8 8 8 9 9 9
3 4 4 5 6 3 2 4 6 7 5 4 2 3 2 2 3 3 1 2 3 2 2 2 3 5 0 1 1 1 1 4 4 4 2 2 4 5 3 3 3 2 2 6 6 5 5 4 4 5 4 4 5 5 5 5 6 8 9 9 10 11 11 11 11 12 11 11 10 10 10 10 10 10 11 12 11 11 10 9 8 8 9 9 10
4 3 7 8 8 7 8 7 6 6 3 1 2 3 1 1 1 2 2 1 3 2 3 4 2 1 4 2 1 0 3 3 1 4 2 2 3 4 4 3 3 4 4 6 4 4 5 3 4 3 4 4 4 5 5 5 4 4 6 9 11 11 10 10 11 12 12 11 11 11 10 10 10 10 11 12 12 11 10 10 9 9 9 9 10
1 1 2 7 6 4 5 6 4 0 2 2 2 0 0 1 1 1 3 1 2 4 3 2 0 2 1 2 3 2 2 1 2 3 3 0 2 3 5 4 3 4 5 5 5 6 4 4 4 4 3 4 4 4 5 5 5 5 5 7 11 12 11 12 11 11 12 12 12 12 11 10 10 11 11 11 11 10 10 10 10 10 10 9 10
1 0 0 2 2 1 1 0 1 1 1 1 0 0 0 1 1 1 2 2 1 3 2 4 3 1 2 3 0 1 2 3 2 1 1 3 3 1 3 3 4 3 3 5 5 5 5 4 5 4 3 4 3 4 4 5 6 6 8 9 11 11 12 12 12 12 11 12 12 12 12 11 10 11 11 11 11 10 9 9 9 10 10 10 10
0 0 0 0 0 0 1 0 1 1 0 1 1 1 1 1 0 0 1 0 1 4 2 4 3 3 3 2 1 3 3 3 2 5 4 4 0 2 0 3 2 4 4 3 4 5 5 5 5 4 5 4 4 4 5 4 5 5 6 11 12 11 12 12 12 12 12 11 12 13 13 11 10 10 11 11 10 9 8 8 9 10 10 11 10
1 2 1 1 1 1 1 1 1 2 1 2 2 2 1 1 0 0 1 1 1 1 2 2 2 3 3 3 3 4 3 3 3 3 2 3 0 1 1 2 2 1 4 1 6 6 7 6 4 4 4 4 4 4 4 4 5 5 6 10 11 12 12 12 12 12 13 12 11 13 12 12 11 10 11 10 10 8 8 8 9 10 11 11 11
3 3 3 3 3 3 3 3 3 3 3 3 2 2 2 1 0 1 1 1 1 2 2 1 1 1 1 1 5 4 5 5 5 3 3 3 3 1 1 2 3 2 3 3 1 3 5 4 4 4 3 4 4 4 3 3 3 3 5 10 11 11 12 12 11 12 13 13 13 13 13 12 11 11 10 11 9 8 8 8 8 9 10 11 11
4 3 4 3 3 3 3 3 2 3 2 3 3 2 3 2 1 1 0 1 2 3 2 1 2 2 2 4 4 5 2 2 2 3 2 3 3 4 2 0 1 1 3 3 2 0 3 4 4 4 4 4 4 4 2 3 3 4 7 9 9 9 11 11 11 11 13 13 14 14 13 13 12 11 11 10 9 8 7 8 8 8 9 10 10
4 4 4 4 4 4 3 1 3 3 3 3 3 3 2 1 1 1 0 1 1 2 2 3 3 3 2 2 3 2 3 3 1 1 3 1 3 1 2 3 1 1 3 3 1 3 2 3 3 4 2 3 4 3 3 3 4 7 6 8 9 10 11 12 11 11 12 13 14 14 14 13 12 12 10 9 8 8 8 8 8 8 9 10 10
5 5 5 5 4 4 3 3 3 3 3 3 3 3 3 1 0 1 1 1 2 1 2 3 2 1 2 0 2 3 3 3 2 2 2 4 4 3 1 1 0 2 2 2 2 3 0 1 1 2 2 3 4 4 4 4 4 7 8 7 10 10 11 11 10 10 12 13 14 14 14 13 13 13 12 11 11 10 10 8 8 8 7 9 10
5 6 6 5 4 5 4 4 4 4 4 3 3 3 3 2 1 0 1 1 1 2 2 3 3 1 2 2 1 2 2 1 1 3 2 2 2 2 0 1 0 1 2 2 2 2 2 3 2 2 3 4 5 5 5 5 5 8 10 7 8 11 11 11 10 11 12 12 13 14 14 14 14 14 14 12 11 12 11 10 10 8 8 9 9
6 6 5 5 5 5 4 4 5 4 4 3 2 2 1 1 2 1 0 1 1 2 3 3 4 3 0 0 1 0 1 1 0 1 2 2 3 1 2 3 4 4 3 2 3 0 1 3 2 1 2 2 3 3 4 5 7 10 11 6 5 9 10 10 11 12 12 12 13 14 14 15 16 16 16 15 13 11 10 12 12 11 10 8 9
5 6 6 6 6 6 4 4 4 4 3 3 3 3 2 2 1 0 2 1 1 2 2 2 3 3 0 1 1 2 2 1 1 1 1 3 3 3 4 4 3 3 4 3 3 2 1 2 2 0 2 4 5 4 5 6 6 10 9 5 5 5 8 10 11 11 12 11 11 12 14 16 17 17 16 16 14 14 12 10 11 13 12 10 8
4 4 5 5 6 6 5 5 4 4 3 3 3 3 3 3 2 1 2 1 1 1 2 2 3 2 1 0 1 2 2 2 2 2 2 1 1 1 3 2 4 1 1 2 2 1 3 1 0 3 2 5 6 6 5 5 6 7 5 4 4 4 7 11 11 10 11 12 11 11 13 14 14 14 14 14 14 14 13 12 12 13 14 13 9
5 4 4 5 6 6 5 4 4 3 4 3 3 3 3 3 3 3 3 1 0 1 1 1 3 2 2 1 3 1 1 1 4 3 2 2 2 3 3 3 5 3 3 2 4 3 3 3 1 2 4 6 6 6 4 5 8 8 4 4 5 4 9 11 11 10 10 11 11 11 11 11 11 11 11 12 12 12 12 12 12 15 15 15 14
6 4 4 5 5 5 5 4 4 4 4 4 3 3 3 4 3 3 2 2 2 3 2 1 3 2 3 3 2 2 1 2 3 3 3 3 3 2 2 2 4 4 4 4 1 3 2 2 3 2 2 4 6 6 6 5 6 6 5 5 5 8 10 8 10 10 10 11 10 10 10 11 10 10 10 11 11 11 11 12 13 14 15 16 15
5 5 5 5 5 6 5 5 4 4 4 4 4 3 3 4 3 3 2 2 3 3 3 3 2 1 1 2 2 2 1 2 0 1 2 3 3 3 3 3 4 4 3 4 3 6 3 3 4 6 5 4 6 6 6 6 6 8 4 6 7 9 6 5 7 10 10 10 10 9 11 11 11 12 11 11 11 11 11 11 13 14 15 15 16
5 4 5 5 6 6 6 4 5 4 4 4 4 3 3 4 3 3 2 3 4 4 3 4 3 2 2 2 2 3 2 1 2 2 2 3 1 2 3 3 5 3 4 4 3 6 4 2 3 3 4 4 4 3 5 6 7 7 7 6 6 6 6 5 5 8 11 12 12 10 10 10 13 13 12 11 11 11 11 12 13 14 15 15 16
6 6 5 5 5 6 5 5 4 5 5 4 4 3 4 4 4 3 3 2 3 4 3 3 3 3 2 3 3 4 3 3 3 3 3 3 3 3 3 3 5 5 4 4 5 3 5 3 3 3 3 2 3 4 4 6 8 7 9 8 7 5 6 6 6 7 10 11 12 10 10 11 12 14 15 15 14 13 12 12 13 14 14 15 15
6 6 6 6 6 6 5 5 5 5 5 5 4 4 5 5 5 4 3 3 3 3 3 3 3 3 3 3 4 4 3 3 3 4 3 4 3 3 4 2 3 4 4 5 3 3 4 4 3 2 2 2 2 5 6 5 5 4 6 7 7 7 5 5 5 5 9 11 11 9 10 12 12 13 14 14 14 13 13 14 14 14 14 14 14
7 6 6 6 6 6 6 6 6 5 5 5 5 5 6 5 5 5 4 3 3 4 4 4 4 4 4 3 4 4 3 3 4 4 5 4 5 4 3 2 1 2 3 3 4 4 2 2 3 2 2 3 4 4 5 5 5 6 5 6 5 5 5 5 4 4 7 11 9 10 12 12 12 13 14 14 14 14 15 15 15 14 14 14 15
4 1 1 3 3 5 7 6 6 6 7 7 6 5 5 5 6 6 4 4 4 4 5 5 5 5 4 4 5 4 3 3 3 3 4 4 4 3 5 1 1 2 3 3 4 4 3 4 3 3 2 2 3 4 3 4 6 5 5 4 3 4 5 4 4 5 7 9 9 10 10 11 12 13 14 15 15 16 16 16 16 15 15 14 14
2 5 3 8 2 3 3 4 4 6 7 7 7 6 5 6 6 5 5 4 5 5 5 5 6 4 4 4 4 4 3 3 4 4 3 3 3 3 3 3 4 3 3 2 0 1 2 3 3 4 2 3 3 3 4 3 4 5 5 5 4 3 4 6 6 5 5 5 5 6 7 8 11 14 15 16 16 16 15 15 16 16 16 16 15
5 3 4 4 5 6 4 0 2 2 4 6 6 5 4 4 5 5 5 4 3 4 4 5 4 4 3 5 5 4 5 4 4 4 4 4 4 4 5 4 3 3 3 2 1 2 2 1 2 2 3 3 2 4 6 3 3 2 3 5 5 4 3 3 6 5 4 6 6 6 6 8 11 10 13 15 16 16 15 14 13 14 15 18 17
7 6 7 6 7 8 5 3 2 1 4 7 4 3 4 4 4 4 5 5 4 3 3 3 1 6 9 7 10 8 5 5 4 4 3 4 3 4 4 3 2 2 2 1 0 1 1 1 2 2 2 2 5 3 3 4 5 4 1 1 5 6 7 3 2 4 4 4 6 5 6 9 9 10 11 11 14 15 15 12 13 14 16 16 16
5 6 6 7 7 5 4 4 0 3 6 6 1 2 3 2 3 3 4 4 4 4 3 2 6 6 4 4 6 6 5 6 5 2 3 5 4 5 4 1 1 1 1 1 2 1 1 1 4 2 2 5 5 4 7 6 5 5 4 1 2 4 5 6 5 3 4 3 5 5 6 7 7 7 7 7 8 10 10 11 11 16 15 15 15
6 5 6 7 6 5 3 1 2 3 2 0 2 5 3 1 2 2 3 3 4 4 3 3 2 2 4 5 5 11 8 6 8 7 7 6 3 5 5 5 4 2 2 2 2 1 2 3 4 3 4 5 6 5 4 4 5 4 5 4 5 6 5 5 5 2 2 2 6 6 5 5 6 6 6 6 6 6 6 6 8 10 12 13 14
4 4 6 8 7 6 6 5 5 3 2 1 5 3 1 3 1 2 3 3 3 4 2 1 2 3 2 5 4 1 4 5 4 7 7 8 7 5 4 4 3 1 1 2 3 2 2 3 3 2 3 5 6 4 4 6 5 5 4 4 5 4 4 5 8 6 1 3 5 5 5 5 4 6 6 6 6 6 7 7 11 14 13 13 13
4 3 4 5 4 5 6 6 5 3 2 5 6 6 5 3 2 2 2 3 3 3 2 3 3 3 4 2 2 2 3 4 3 5 6 8 7 4 3 2 2 2 3 3 3 2 2 3 4 4 3 4 5 4 5 4 5 6 6 5 3 3 4 4 4 6 6 5 5 6 6 4 3 5 6 5 6 6 8 10 13 14 13 13 15
4 4 4 5 5 5 6 6 5 3 3 5 6 6 6 6 6 3 3 2 3 3 3 3 3 4 4 4 4 3 2 7 5 4 3 4 6 7 6 5 4 2 5 7 6 4 2 2 3 4 3 2 3 3 3 5 5 5 5 5 4 4 3 5 5 5 7 5 4 4 5 5 3 5 5 6 6 7 8 10 14 13 13 15 16
5 5 5 6 6 6 6 6 5 3 3 5 5 5 4 5 4 3 2 2 3 4 3 3 3 3 3 5 4 3 2 3 3 5 4 4 4 4 4 4 4 5 6 6 6 4 1 2 2 2 2 1 2 3 3 3 2 3 4 4 4 4 4 5 5 6 6 4 4 5 3 3 5 6 6 7 7 7 7 10 13 11 14 15 15
4 5 6 6 5 5 5 5 5 3 2 6 5 4 4 3 5 2 1 1 4 4 3 2 3 4 5 5 4 3 2 3 4 5 4 4 3 3 3 3 3 3 4 6 5 5 4 3 1 2 3 1 0 1 2 2 2 2 3 4 3 3 5 5 4 3 5 3 4 3 4 6 5 6 6 7 7 7 7 8 9 11 15 15 15
4 5 5 5 5 5 4 5 5 4 2 7 7 7 6 5 4 1 2 5 5 4 4 3 4 4 4 5 4 4 2 3 6 9 6 4 2 3 2 2 2 2 4 2 2 4 3 3 1 1 1 0 1 1 2 2 3 2 3 2 1 3 5 6 6 5 4 5 2 4 5 7 4 6 7 6 6 7 8 5 6 12 14 15 15
6 5 5 5 4 5 4 4 5 4 3 6 8 7 7 7 2 2 4 5 5 5 5 4 4 4 4 3 4 4 3 3 5 7 7 6 3 3 3 3 3 2 4 5 6 6 7 6 3 3 3 3 4 2 6 5 4 4 4 6 6 5 5 6 5 5 6 6 2 6 5 6 6 6 7 6 6 6 6 5 4 9 14 15 15
6 6 6 6 5 5 5 4 2 4 3 6 8 7 6 6 3 2 4 5 5 6 5 3 3 3 4 9 6 3 3 2 4 5 7 4 3 3 3 3 3 3 4 5 4 5 7 6 7 7 7 7 8 4 6 8 8 6 5 6 5 4 5 5 6 5 5 3 6 9 7 5 7 5 7 6 4 3 4 3 6 6 9 10 13
7 6 6 7 6 5 4 4 7 6 4 5 9 9 9 9 4 2 3 5 6 5 5 5 4 5 4 5 7 4 3 2 2 4 6 5 3 3 2 2 3 3 3 4 5 6 6 6 7 7 8 8 6 6 8 13 13 10 6 6 6 5 6 5 6 6 4 3 7 9 7 7 7 7 8 7 4 3 1 6 5 5 6 7 10
Wind_Direction
123 122 99 94 105 90 64 86 51 21 337 312 322 316 315 313 313 302 301 289 284 284 285 288 277 195 161 143 152 157 156 144 162 164 169 191 207 208 196 200 203 205 206 205 206 208 210 213 221 222 231 241 243 246 251 252 254 262 264 265 270 288 294 298 302 308 301 312 322 314 313 314 317 318 304 271 284 290 286 281 283 286 290 285 280
138 137 125 119 105 103 79 37 88 330 317 289 299 294 291 302 293 298 299 302 293 277 282 286 292 159 154 157 166 166 151 154 171 173 173 190 211 233 208 207 211 216 217 219 218 222 216 217 227 230 236 235 242 247 245 250 259 262 263 265 277 284 288 294 298 294 293 297 308 311 305 307 311 313 313 311 297 280 279 286 287 286 286 288 283
156 161 130 124 131 124 48 3 333 322 311 292 271 273 273 278 302 302 296 293 289 288 283 270 271 106 159 165 166 142 152 165 171 168 176 193 204 221 227 213 216 220 222 226 230 231 228 228 230 232 234 240 241 244 244 247 249 255 259 265 272 276 280 284 287 288 287 291 298 302 300 296 297 300 303 304 300 302 300 299 296 293 288 281 278
145 139 133 129 120 101 86 301 275 293 265 252 284 278 284 276 264 262 268 267 278 286 273 260 280 271 203 151 144 150 159 179 184 181 180 193 203 210 229 229 217 218 222 225 228 229 232 232 231 231 234 236 238 241 239 244 245 250 257 261 266 272 278 281 280 283 285 288 291 295 294 293 295 297 300 300 302 301 299 297 296 295 292 289 285
132 136 126 122 125 124 212 218 251 268 281 296 299 293 285 276 272 259 263 255 258 265 261 236 223 237 252 168 146 166 167 181 190 176 196 201 197 206 216 228 232 225 223 227 229 231 235 236 237 238 238 239 241 240 238 241 242 246 249 255 260 268 275 277 279 280 283 287 289 290 291 291 292 294 297 299 298 297 298 297 297 294 291 291 294
128 104 108 112 115 126 217 241 271 293 288 311 327 325 305 302 290 303 299 305 251 235 204 226 238 213 209 198 150 176 171 181 193 197 192 208 200 198 210 220 227 239 240 232 232 234 234 237 239 241 243 245 247 247 249 247 248 250 250 253 259 267 274 279 283 284 285 287 288 289 288 290 290 293 294 295 296 298 298 297 298 298 297 297 298
98 117 107 118 134 165 186 351 324 285 310 327 307 308 299 302 319 324 310 277 335 317 255 244 218 207 199 200 177 173 173 186 188 197 201 208 190 204 202 209 216 223 229 236 242 239 240 241 240 241 245 249 251 254 256 256 257 258 258 259 263 267 273 280 283 286 287 288 287 287 288 289 290 291 292 292 294 293 294 293 294 296 298 299 304
110 118 113 87 135 152 49 348 289 310 307 298 318 313 310 305 292 270 291 315 3 343 307 276 216 196 182 192 182 167 178 182 192 203 207 192 201 200 204 210 210 216 222 224 234 245 246 245 246 248 248 250 252 256 258 258 258 259 261 265 268 270 275 279 282 284 285 286 288 288 288 287 288 288 289 292 294 293 292 292 293 294 293 298 299
105 103 114 106 177 89 190 235 256 253 308 332 311 275 313 322 309 308 245 303 329 318 332 6 208 171 142 152 145 162 179 192 195 202 190 198 200 202 202 216 214 214 219 218 228 234 246 249 249 249 250 252 255 256 256 260 263 263 264 269 273 276 278 280 282 283 285 285 286 287 287 288 287 287 288 290 290 289 287 289 292 294 295 296 295
109 118 140 145 113 96 272 249 245 354 360 321 289 305 297 281 291 282 272 347 327 333 317 332 275 120 62 56 161 166 183 193 198 192 188 205 203 205 206 207 210 217 216 215 219 223 233 246 249 248 249 250 252 252 254 257 262 265 267 269 272 276 279 281 280 281 282 283 284 285 286 285 285 285 284 285 284 285 288 291 292 291 289 288 291
144 158 151 116 103 228 226 240 30 26 333 299 316 317 299 259 243 280 327 347 292 282 256 239 269 78 82 285 272 162 157 183 190 189 200 205 206 209 188 209 211 215 219 220 221 226 231 234 241 246 248 248 246 248 251 254 256 262 263 262 261 264 269 273 275 279 281 282 282 282 283 283 284 284 282 280 281 281 284 283 289 290 286 285 287
167 139 140 137 163 189 234 39 35 12 281 303 304 301 292 300 295 329 339 319 262 240 188 152 22 82 324 268 280 41 243 145 173 198 200 212 221 196 197 202 212 218 215 219 222 223 228 234 224 230 243 255 252 248 251 255 257 261 260 258 254 253 257 261 263 268 275 281 283 282 281 281 281 280 280 279 277 277 280 279 280 285 282 281 282
155 143 145 135 132 104 15 12 326 271 256 250 267 284 259 240 298 317 313 357 328 355 57 115 107 48 348 344 338 10 326 154 181 193 210 220 217 203 202 181 217 218 218 215 222 226 227 232 231 221 233 239 258 256 251 252 258 262 264 262 257 252 250 256 261 262 266 271 276 276 276 277 279 281 281 278 278 276 276 276 276 278 279 282 281
148 167 124 122 104 92 12 331 286 289 312 294 283 254 350 11 23 354 347 18 308 344 302 96 40 144 142 322 343 330 329 330 295 249 224 207 236 227 203 197 205 218 218 211 224 225 227 228 235 227 222 224 241 252 250 251 257 259 262 262 258 249 246 251 258 260 259 261 265 267 269 271 274 276 279 281 280 279 278 276 274 272 272 277 282
162 149 128 122 103 104 279 305 296 289 258 267 253 326 22 15 2 25 331 346 292 294 290 92 167 105 97 82 317 353 322 348 304 273 261 181 203 233 216 208 207 208 203 203 220 229 228 225 229 236 226 215 220 228 228 233 232 243 252 259 261 254 244 246 252 257 259 259 262 265 267 269 271 274 278 281 283 284 283 280 277 274 271 274 273
196 177 149 143 140 176 203 229 233 225 229 243 338 356 14 355 8 2 63 16 4 315 18 79 126 124 148 187 224 126 330 286 262 281 219 192 176 228 225 218 211 191 209 202 217 223 231 216 228 236 222 208 206 210 216 225 239 240 248 252 257 259 256 249 252 256 260 262 265 265 267 269 271 275 277 280 283 287 289 289 283 277 275 272 273
205 208 131 154 169 182 189 206 221 226 217 65 20 352 350 322 317 9 32 137 24 355 333 15 16 173 141 94 26 25 216 243 133 278 322 237 207 215 239 239 218 205 214 228 228 234 240 253 247 239 217 205 199 202 207 223 234 235 240 248 249 251 253 254 254 260 264 267 270 271 273 274 277 279 280 280 283 286 290 292 292 288 281 274 271
234 239 135 155 162 192 194 203 207 344 36 29 24 18 19 308 289 20 1 330 130 60 349 319 327 49 82 163 168 176 200 225 94 236 327 236 333 223 208 234 240 214 226 233 227 239 246 255 239 236 236 225 211 196 205 215 218 229 233 242 245 244 246 249 253 259 265 272 277 279 280 282 284 286 284 284 284 286 289 292 293 292 288 282 274
303 77 22 69 97 160 120 345 1 14 11 48 338 146 243 263 317 31 338 346 74 81 39 306 343 357 28 347 8 198 158 117 197 62 74 318 351 225 205 226 221 223 244 248 233 227 245 243 246 237 230 234 216 204 207 217 222 220 230 236 245 247 247 248 251 258 264 271 278 281 284 285 285 285 285 285 285 285 288 291 293 292 290 286 278
324 16 22 52 38 342 42 6 300 308 279 210 244 245 302 319 246 248 319 76 133 105 92 23 78 298 340 13 21 59 71 72 103 161 159 137 358 317 353 351 182 229 253 219 257 235 232 248 253 254 242 247 222 209 203 211 221 230 238 242 246 250 251 251 252 257 263 267 275 279 283 284 283 283 284 284 284 286 290 293 293 291 289 291 286
196 162 196 156 214 234 264 238 245 238 189 208 241 236 198 183 29 19 358 329 55 117 93 32 30 340 343 345 6 30 21 71 76 73 124 98 6 31 317 342 24 312 323 200 206 214 212 226 239 238 241 263 250 227 208 203 220 227 240 247 250 252 255 255 256 259 264 268 271 277 281 284 283 282 283 283 282 283 288 290 287 288 290 288 287
213 176 179 194 204 224 228 229 213 204 190 202 216 199 192 197 185 192 212 22 20 52 66 74 85 353 104 75 37 349 11 8 14 21 51 88 137 38 315 71 65 314 320 337 339 239 208 200 225 247 273 276 276 266 222 215 226 233 245 254 257 257 259 261 261 262 265 270 272 274 278 281 282 282 282 283 279 279 283 286 283 282 287 287 289
185 189 181 195 211 213 218 238 214 221 203 194 209 216 238 202 210 184 174 65 8 40 48 34 89 88 74 82 94 86 97 65 322 346 89 70 32 357 312 260 139 15 320 318 313 349 155 157 202 236 250 264 271 275 282 266 261 251 255 257 255 259 266 270 269 267 269 271 271 272 272 277 279 281 284 278 274 271 276 286 283 281 282 286 287
182 185 194 197 206 220 231 202 218 197 214 202 202 228 228 212 176 123 338 16 2 40 41 13 24 66 69 106 117 125 100 127 197 137 87 93 121 158 7 328 10 272 276 315 313 19 37 156 207 227 286 310 284 280 274 266 268 265 272 279 280 282 281 280 278 273 271 271 268 268 270 275 278 281 278 277 274 274 281 280 286 281 286 286 287
191 186 207 203 205 213 221 207 205 193 189 163 196 212 162 139 28 319 3 339 341 1 15 341 20 47 131 14 129 141 160 187 149 131 107 121 115 79 309 81 53 305 293 14 340 303 263 348 342 324 291 280 287 292 288 303 298 301 302 302 305 302 297 291 286 276 273 272 268 267 269 272 275 277 279 281 283 282 284 279 275 271 272 280 288
190 196 202 204 207 209 198 203 188 185 167 181 189 196 162 150 108 156 245 288 20 12 350 334 343 352 126 155 155 143 186 190 149 106 113 101 59 84 354 330 97 312 286 352 324 41 328 331 288 281 312 321 310 307 304 299 304 300 301 306 305 301 301 298 289 281 281 277 269 267 270 273 275 278 281 283 283 284 286 289 287 284 281 281 283
192 203 204 198 208 208 199 190 181 190 169 184 190 188 181 124 135 197 284 274 7 356 346 6 343 349 73 171 182 236 254 261 144 114 134 123 138 161 105 36 347 5 353 318 336 17 237 284 263 280 248 253 267 289 309 315 308 303 306 310 293 289 297 298 293 287 285 282 273 273 276 278 279 284 287 289 289 285 283 289 293 294 291 285 282
201 200 202 194 199 200 200 194 187 185 184 176 178 182 175 171 181 190 260 288 290 332 324 344 345 331 301 179 133 238 205 241 230 195 172 167 136 140 110 109 94 335 340 343 348 310 282 11 318 296 337 358 334 325 310 314 310 308 314 310 291 292 299 296 293 292 291 287 285 288 289 288 290 292 293 294 293 289 286 284 287 293 296 292 284
207 206 197 196 193 189 192 191 195 185 185 181 176 189 185 186 195 213 250 287 151 255 308 344 306 296 359 184 213 237 236 219 253 255 204 170 153 167 152 147 158 118 301 327 288 268 301 342 29 296 335 340 333 321 323 312 305 315 316 309 298 294 291 292 296 300 304 303 301 300 297 297 300 302 301 300 297 292 287 286 287 292 297 299 294
208 213 187 193 192 190 185 186 193 189 189 203 187 193 189 204 195 205 225 191 237 292 277 315 296 324 349 208 246 271 258 192 254 254 230 205 192 201 187 178 152 165 178 214 276 226 265 308 210 271 322 328 321 317 314 312 308 313 315 316 308 295 294 305 307 306 301 302 313 318 314 313 311 310 310 309 305 297 293 291 288 294 298 301 305
208 210 182 184 182 191 187 185 189 197 199 207 198 188 185 202 203 217 234 190 213 258 272 279 289 9 320 308 330 296 176 234 242 251 243 229 244 218 223 169 198 182 173 163 211 284 191 263 291 272 303 308 311 312 314 313 306 311 315 312 301 300 311 310 307 305 306 311 323 322 326 328 321 317 320 323 317 309 301 295 293 295 297 300 302
195 190 181 175 177 184 192 186 193 197 199 215 207 195 186 207 197 211 227 187 208 231 258 273 286 315 322 296 280 253 224 170 178 264 231 228 207 223 233 226 222 201 167 163 194 262 246 222 272 294 291 291 308 308 309 313 311 315 315 315 311 316 314 304 304 307 306 309 320 342 344 325 330 340 339 332 323 314 306 299 297 297 297 299 301
191 186 188 188 179 180 181 189 191 198 202 206 216 196 193 215 217 209 228 197 209 231 237 274 290 305 303 288 270 270 228 328 278 264 269 272 260 242 241 219 229 201 180 181 212 269 292 248 240 262 295 315 306 284 313 312 316 320 323 313 311 309 305 301 305 306 310 324 331 345 331 334 343 339 337 332 325 319 312 307 302 301 301 300 300
193 191 186 188 190 181 184 189 189 196 204 204 201 190 202 211 232 218 237 225 208 222 214 241 278 289 273 287 305 297 289 287 282 288 278 283 274 290 285 223 233 221 198 178 223 231 274 311 308 294 286 249 272 293 310 319 317 324 322 319 314 306 302 313 322 314 307 313 320 335 327 338 339 338 337 336 332 325 318 311 309 307 305 302 301
199 195 189 186 186 190 190 194 196 194 203 207 200 192 202 206 217 228 220 215 213 220 223 233 239 247 262 252 264 269 280 281 280 279 286 276 255 248 274 238 226 232 205 201 176 232 265 277 252 287 270 312 280 296 315 308 303 303 309 312 316 319 323 323 319 313 309 313 323 325 325 337 337 333 330 326 325 323 319 315 313 311 307 305 304
195 201 195 187 183 189 196 199 200 204 204 206 201 199 202 207 214 223 231 225 220 220 220 231 245 238 237 254 262 259 255 260 273 279 277 269 266 257 247 260 192 275 243 209 211 213 235 273 291 247 291 323 297 295 297 305 316 323 312 307 316 314 315 326 326 317 322 324 325 327 337 333 329 327 323 322 322 320 319 319 318 315 312 309 308
347 324 187 137 166 193 197 198 200 207 205 202 199 200 207 208 213 219 220 218 219 224 226 229 233 231 238 228 243 244 229 228 259 251 257 270 267 265 263 228 191 253 289 239 221 206 210 254 295 287 276 287 264 293 294 328 328 327 322 323 312 310 318 318 323 327 320 326 327 327 326 327 324 323 323 323 323 322 321 321 321 321 320 317 314
170 105 358 332 334 189 201 201 205 199 202 198 194 196 198 205 213 225 223 217 225 226 232 231 234 233 229 233 237 236 242 235 250 260 258 260 263 259 263 234 202 206 234 261 143 147 186 235 230 297 331 293 324 299 290 340 328 315 320 318 335 338 352 340 333 324 325 320 322 326 327 328 325 325 324 324 321 319 320 323 326 327 329 330 328
128 136 148 131 287 295 265 265 203 208 217 196 190 197 203 197 206 218 227 223 222 232 235 235 247 260 318 329 324 320 283 254 246 251 268 275 265 252 231 239 235 207 215 235 172 168 180 231 287 244 273 283 250 298 306 334 290 218 257 318 327 308 321 314 315 317 316 309 302 304 319 317 315 318 320 317 315 317 323 327 329 336 346 345 343
169 180 176 185 196 229 215 219 234 208 37 357 302 240 207 195 197 195 208 212 225 230 232 237 228 59 59 0 319 289 272 264 240 249 222 255 251 258 252 222 216 174 176 136 88 45 357 286 232 292 287 289 315 284 292 334 335 332 260 247 299 311 319 309 265 302 300 310 316 337 333 323 324 324 320 319 316 324 333 342 346 356 1 352 351
165 174 186 193 199 208 219 214 216 79 143 185 232 344 276 224 196 202 214 215 216 227 260 303 56 87 127 196 240 266 272 259 269 296 287 244 233 254 265 167 146 147 144 155 177 183 266 351 303 267 294 304 285 297 315 313 308 288 290 11 273 289 300 316 305 270 245 303 316 332 326 319 319 321 323 322 321 331 340 346 353 354 356 352 352
183 178 182 189 202 185 167 110 105 127 93 115 1 336 344 246 191 210 219 230 217 211 211 245 132 175 170 198 251 274 328 30 42 23 19 2 290 222 208 186 183 174 216 252 272 233 227 269 265 265 293 289 287 290 285 282 294 303 318 326 322 311 322 310 297 264 297 355 323 325 317 308 313 314 323 322 321 338 335 346 343 340 351 351 348
170 169 174 183 188 173 165 144 121 95 90 24 354 326 346 325 257 195 208 219 212 213 219 202 185 228 219 221 219 347 21 18 25 13 9 23 25 60 80 96 115 155 205 239 262 218 214 229 254 273 260 274 286 292 289 293 301 300 293 304 295 315 332 333 319 318 286 344 325 317 322 305 319 324 323 324 327 336 334 334 332 340 351 347 341
135 134 132 142 147 139 128 117 110 111 93 11 351 346 343 330 245 205 195 193 221 226 210 227 192 165 152 159 120 81 38 27 25 14 2 9 16 34 85 115 160 161 178 192 225 231 212 246 274 264 251 266 281 303 302 310 311 317 308 308 292 305 316 317 303 305 294 332 331 323 310 298 338 334 327 323 330 330 329 324 328 339 348 343 347
117 107 111 103 92 89 107 114 106 93 88 13 1 360 353 343 325 260 195 195 191 156 137 137 131 129 130 110 82 40 16 23 20 6 12 358 357 8 12 18 2 264 233 250 247 250 283 246 241 281 270 266 291 302 326 326 317 301 318 326 317 323 310 309 293 302 308 327 337 322 317 309 347 336 327 324 331 328 324 327 329 341 345 349 351
111 106 100 99 100 98 99 100 98 81 58 353 349 354 351 340 325 299 232 169 126 128 138 135 125 123 121 125 119 79 23 27 14 4 3 1 355 6 12 8 4 357 3 28 37 28 355 253 250 248 278 30 288 274 313 325 359 342 331 312 319 322 321 298 291 286 290 332 347 321 297 324 345 338 334 331 331 323 319 320 329 343 347 348 347
117 119 119 117 111 110 106 104 100 82 25 357 339 342 337 339 329 286 286 126 120 115 106 99 100 99 100 101 104 99 52 27 19 1 359 348 342 360 17 8 352 10 54 51 31 16 14 8 300 257 286 271 231 282 278 315 10 296 265 263 283 300 288 281 285 285 300 323 345 3 325 327 335 340 331 328 327 319 314 318 336 347 347 345 346
92 89 78 89 103 98 94 96 91 71 36 7 352 344 337 334 323 17 78 115 116 107 97 94 88 89 101 107 111 101 68 36 8 356 350 322 339 8 8 354 350 41 71 71 57 32 21 356 321 328 307 2 31 10 4 350 345 338 324 304 322 354 352 351 341 323 322 322 14 30 336 323 333 341 321 318 320 313 311 320 334 348 345 342 344
107 93 92 88 83 84 79 75 80 65 31 4 358 351 340 330 346 62 104 112 113 111 109 107 104 102 94 97 101 103 74 40 10 349 344 351 36 19 2 349 339 52 22 358 355 357 2 350 346 155 137 166 179 122 39 38 17 345 3 16 4 345 347 342 331 335 330 323 10 11 333 312 339 329 318 316 315 299 296 319 339 351 341 340 344
106 104 105 98 92 100 103 93 80 77 50 14 10 8 10 358 332 129 137 126 131 125 114 92 96 97 106 101 94 87 93 63 7 357 353 13 46 26 17 358 13 36 4 353 344 348 358 16 60 92 88 52 29 45 44 22 1 5 24 7 331 335 338 336 329 314 297 324 27 4 345 331 323 331 322 306 299 266 281 334 346 339 341 346 346
104 104 102 100 102 92 91 93 88 83 59 28 22 23 32 26 25 42 119 138 135 140 130 110 84 80 65 67 79 79 84 72 45 27 8 17 50 24 5 24 35 28 356 337 340 351 357 17 36 35 34 24 21 15 17 14 8 12 3 352 342 351 350 346 350 348 339 24 14 7 356 330 342 344 342 328 346 294 39 357 335 337 353 1 349